Find USA 270

NORAD ID: 41744 Int'l Des: 2016-052 Owner: AFSPC Country: US operational
MEOCIRCULAR

リアルタイム位置

3D地球を読み込み中...

USA 270について

説明を読み込み中...

次回通過

Passes for default location (London). Set your location on the main map for personalized predictions.

高度履歴

Loading altitude history...

軌道要素

1 41744U 16052A 26131.71723126 .00000088 00000-0 00000+0 0 9991
2 41744 4.1061 77.6389 0008669 331.7523 261.9173 1.00275011 27765
Epoch: May 11, 2026 • Age: 101 hours

現在のステータス

高度 35749.3 km
速度 3.08 km/s
衛星直下点 -2.64°S, 176.3°W
打ち上げ日 Aug 19, 2016
運用期間 9.7 years
タイプ military

技術仕様

分類 Payload
質量 500.00 kg
乾燥質量 500.00 kg
総質量 500.00 kg
長さ 2.00 m
直径 2.00 m
スパン 5.00 m
形状 Box + 2 pan
製造者 OATKD
バスタイプ GeoStar-1
フェーズステータス In Orbit
所有者/国 AFSPC/US

Most Searched